Weather History for Defiance, OH

Change the Weather History Date:

Wednesday, November 6, 2013

  Actual Average Record
Temperature  
Mean Temperature 50 °F -  
Max Temperature 57 °F 50 °F 75 °F (1978)
Min Temperature 44 °F 33 °F 14 °F (1991)
Degree Days  
Heating Degree Days 14    
Moisture  
Dew Point 46 °F    
Average Humidity 76    
Maximum Humidity 88    
Minimum Humidity 53    
Precipitation  
Precipitation 0.10 in - - ()
Sea Level Pressure  
Sea Level Pressure 29.98 in    
Wind  
Wind Speed 12 mph (SW)    
Max Wind Speed 20 mph    
Max Gust Speed 32 mph    
Visibility 10 miles    
Events Rain    
Averages and records for this station are not official NWS values.
T = Trace of Precipitation, MM = Missing Value Source: NWS Daily Summary

Daily Weather History Graph

Daily Weather History Graph

Search for Another Location

Airport:

Trip Planner

Search our weather history database for the weather conditions in past years. The results will help you decide how hot, cold, wet, or windy it might be!

Date:

Astronomy

Nov. 06, 2013 Rise Set
Actual Time 7:15 AM EST 5:26 PM EST
Civil Twilight 6:46 AM EST 5:55 PM EST
Nautical Twilight 6:13 AM EST 6:28 PM EST
Astronomical Twilight 5:41 AM EST 7:00 PM EST
Moon 10:30 AM EST (11/6) 8:29 PM EST (11/6)
Length of Visible Light 11h 09m
Length of Day
10h 11m
Waxing Crescent, 13% of the Moon is Illuminated
Nov 6
Waxing Crescent
Nov 10
First Quarter
Nov 17
Full
Nov 25
Last Quarter
Dec 2
New

Hourly Weather History & Observations

Time (EST) Temp. Windchill Dew Point Humidity Pressure Visibility Wind Dir Wind Speed Gust Speed Precip Events Conditions
12:53 AM 54.0 °F - 39.0 °F 57% 30.16 in 10.0 mi South 8.1 mph - N/A   Mostly Cloudy
1:53 AM 54.0 °F - 39.0 °F 57% 30.13 in 10.0 mi South 10.4 mph - 0.00 in   Overcast
2:53 AM 55.0 °F - 37.9 °F 53% 30.11 in 10.0 mi South 11.5 mph - N/A   Overcast
3:53 AM 55.9 °F - 39.0 °F 53% 30.07 in 10.0 mi South 11.5 mph 19.6 mph N/A   Overcast
4:53 AM 55.9 °F - 41.0 °F 57% 30.04 in 10.0 mi South 12.7 mph - N/A   Overcast
5:53 AM 55.9 °F - 42.1 °F 60% 30.03 in 10.0 mi South 10.4 mph 18.4 mph N/A   Overcast
6:53 AM 55.0 °F - 44.1 °F 67% 30.01 in 10.0 mi South 11.5 mph - 0.00 in   Overcast
7:53 AM 55.9 °F - 46.9 °F 72% 30.00 in 10.0 mi South 12.7 mph - 0.00 in Rain Light Rain
8:53 AM 57.9 °F - 46.0 °F 65% 29.99 in 10.0 mi SSW 15.0 mph 23.0 mph 0.00 in   Overcast
9:53 AM 55.9 °F - 48.0 °F 75% 29.99 in 10.0 mi SSW 10.4 mph - 0.02 in Rain Light Rain
10:53 AM 55.9 °F - 48.0 °F 75% 29.98 in 10.0 mi SSW 12.7 mph - 0.01 in Rain Light Rain
11:53 AM 57.9 °F - 48.9 °F 72% 29.95 in 10.0 mi SSW 16.1 mph 25.3 mph 0.01 in   Overcast
12:22 PM 55.4 °F - 50.0 °F 82% 29.93 in 3.0 mi SSW 17.3 mph 32.2 mph 0.00 in Rain Light Rain
12:53 PM 55.9 °F - 50.0 °F 80% 29.92 in 10.0 mi SSW 13.8 mph 25.3 mph 0.00 in   Overcast
1:53 PM 55.9 °F - 51.1 °F 84% 29.90 in 10.0 mi SSW 19.6 mph 26.5 mph 0.00 in Rain Light Rain
2:53 PM 57.0 °F - 52.0 °F 83% 29.86 in 10.0 mi SSW 17.3 mph 29.9 mph 0.01 in   Overcast
3:34 PM 57.2 °F - 51.8 °F 82% 29.91 in 10.0 mi SW 17.3 mph 27.6 mph 0.00 in Rain Light Rain
3:53 PM 57.0 °F - 52.0 °F 83% 29.91 in 10.0 mi SW 16.1 mph 26.5 mph 0.00 in   Overcast
4:25 PM 57.2 °F - 51.8 °F 82% 29.90 in 10.0 mi SW 13.8 mph 23.0 mph 0.00 in Rain Light Rain
4:53 PM 57.0 °F - 51.1 °F 81% 29.89 in 10.0 mi SW 13.8 mph 24.2 mph 0.00 in Rain Light Rain
5:53 PM 57.0 °F - 51.1 °F 81% 29.91 in 10.0 mi SW 16.1 mph 21.9 mph 0.00 in   Overcast
6:04 PM 57.2 °F - 51.8 °F 82% 29.91 in 10.0 mi SW 12.7 mph 26.5 mph 0.00 in Rain Light Rain
6:53 PM 55.9 °F - 52.0 °F 87% 29.92 in 10.0 mi SW 12.7 mph 23.0 mph 0.00 in   Overcast
7:12 PM 55.4 °F - 51.8 °F 88% 29.94 in 3.0 mi West 8.1 mph 18.4 mph 0.01 in Rain Light Rain
7:35 PM 48.2 °F - 44.6 °F 87% 29.96 in 10.0 mi WNW 8.1 mph 19.6 mph 0.01 in Rain Light Rain
7:53 PM 48.0 °F - 43.0 °F 83% 29.98 in 10.0 mi WNW 11.5 mph 23.0 mph 0.02 in Rain Light Rain
8:53 PM 46.0 °F 42.5 °F 42.1 °F 86% 30.02 in 10.0 mi Variable 6.9 mph 18.4 mph 0.03 in Rain Light Rain
9:53 PM 45.0 °F 41.2 °F 39.9 °F 82% 30.02 in 10.0 mi Variable 6.9 mph - 0.00 in   Overcast
10:53 PM 45.0 °F 41.8 °F 39.9 °F 82% 30.03 in 10.0 mi WNW 5.8 mph - N/A   Overcast
11:36 PM 44.6 °F 39.7 °F 39.2 °F 81% 30.03 in 10.0 mi NW 9.2 mph 17.3 mph N/A   Mostly Cloudy
11:53 PM 44.1 °F 38.6 °F 39.0 °F 82% 30.03 in 10.0 mi NW 10.4 mph - N/A   Scattered Clouds